Time,TemperatureF,DewpointF,PressureIn,WindDirection,WindDirectionDegrees,WindSpeedMPH,WindSpeedGustMPH,Humidity,HourlyPrecipIn,Conditions,Clouds,dailyrainin,SoftwareType,DateUTC
2013-01-11 00:02:00,65.0,63.0,29.97,West,269,2.0,5.0,94,0.00,,,0.39,,2013-01-11 10:02:00,
2013-01-11 00:12:00,65.0,63.0,29.97,West,269,2.0,5.0,94,0.00,,,0.39,,2013-01-11 10:12:00,
2013-01-11 00:22:00,65.0,63.0,29.96,West,274,3.0,6.0,94,0.00,,,0.39,,2013-01-11 10:22:00,
2013-01-11 00:32:00,65.0,63.0,29.96,West,276,3.0,5.0,94,0.00,,,0.39,,2013-01-11 10:32:00,
2013-01-11 00:42:00,65.0,63.0,29.96,West,276,3.0,5.0,94,0.00,,,0.39,,2013-01-11 10:42:00,
2013-01-11 00:52:00,65.0,63.0,29.96,West,266,1.0,4.0,94,0.01,,,0.40,,2013-01-11 10:52:00,
2013-01-11 01:02:00,65.0,63.0,29.95,NW,307,3.0,6.0,94,0.01,,,0.40,,2013-01-11 11:02:00,
2013-01-11 01:11:00,65.0,63.0,29.95,NW,307,3.0,6.0,94,0.01,,,0.40,,2013-01-11 11:11:00,
2013-01-11 01:22:00,65.0,63.0,29.95,West,270,3.0,7.0,94,0.01,,,0.40,,2013-01-11 11:22:00,
2013-01-11 01:32:00,65.0,64.0,29.94,West,269,3.0,6.0,95,0.01,,,0.40,,2013-01-11 11:32:00,
2013-01-11 01:42:00,65.0,64.0,29.94,West,269,3.0,6.0,95,0.01,,,0.40,,2013-01-11 11:42:00,
2013-01-11 01:53:00,65.0,64.0,29.94,West,274,3.0,7.0,95,0.00,,,0.40,,2013-01-11 11:53:00,
2013-01-11 02:02:00,65.0,64.0,29.93,WNW,300,3.0,6.0,95,0.00,,,0.40,,2013-01-11 12:02:00,
2013-01-11 02:12:00,65.0,64.0,29.93,WNW,300,3.0,6.0,95,0.00,,,0.40,,2013-01-11 12:12:00,
2013-01-11 02:22:00,65.0,64.0,29.93,West,279,3.0,5.0,95,0.00,,,0.40,,2013-01-11 12:22:00,
2013-01-11 02:32:00,65.0,64.0,29.93,West,276,3.0,5.0,95,0.00,,,0.40,,2013-01-11 12:32:00,
2013-01-11 02:42:00,65.0,64.0,29.93,West,276,3.0,5.0,95,0.00,,,0.40,,2013-01-11 12:42:00,
2013-01-11 02:53:00,65.0,64.0,29.92,WNW,300,2.0,5.0,95,0.00,,,0.40,,2013-01-11 12:53:00,
2013-01-11 03:02:00,65.0,64.0,29.91,West,272,3.0,6.0,95,0.00,,,0.40,,2013-01-11 13:02:00,
2013-01-11 03:12:00,65.0,64.0,29.91,West,272,3.0,6.0,95,0.00,,,0.40,,2013-01-11 13:12:00,
2013-01-11 03:22:00,64.0,63.0,29.91,WNW,297,3.0,7.0,95,0.00,,,0.39,,2013-01-11 13:22:00,
2013-01-11 03:32:00,64.0,63.0,29.91,West,268,2.0,6.0,95,0.00,,,0.39,,2013-01-11 13:32:00,
2013-01-11 03:42:00,64.0,63.0,29.91,West,268,2.0,6.0,95,0.00,,,0.39,,2013-01-11 13:42:00,
2013-01-11 03:52:00,64.0,63.0,29.91,WNW,303,4.0,7.0,95,0.00,,,0.39,,2013-01-11 13:52:00,
2013-01-11 04:02:00,65.0,64.0,29.91,WNW,298,3.0,6.0,95,0.01,,,0.40,,2013-01-11 14:02:00,
2013-01-11 04:11:00,65.0,64.0,29.91,WNW,298,3.0,6.0,95,0.01,,,0.40,,2013-01-11 14:11:00,
2013-01-11 04:22:00,65.0,64.0,29.91,West,264,2.0,6.0,95,0.01,,,0.40,,2013-01-11 14:22:00,
2013-01-11 04:32:00,65.0,64.0,29.91,WNW,287,2.0,5.0,95,0.01,,,0.40,,2013-01-11 14:32:00,
2013-01-11 04:42:00,65.0,64.0,29.91,WNW,287,2.0,5.0,95,0.01,,,0.40,,2013-01-11 14:42:00,
2013-01-11 04:53:00,65.0,64.0,29.91,West,278,2.0,7.0,95,0.02,,,0.42,,2013-01-11 14:53:00,
2013-01-11 05:03:00,65.0,64.0,29.91,WSW,245,1.0,5.0,95,0.02,,,0.42,,2013-01-11 15:03:00,
2013-01-11 05:12:00,64.0,63.0,29.91,West,281,3.0,5.0,95,0.02,,,0.42,,2013-01-11 15:12:00,
2013-01-11 05:22:00,64.0,63.0,29.91,West,281,3.0,5.0,95,0.02,,,0.42,,2013-01-11 15:22:00,
2013-01-11 05:32:00,64.0,63.0,29.91,West,269,1.0,5.0,95,0.02,,,0.42,,2013-01-11 15:32:00,
2013-01-11 05:42:00,64.0,63.0,29.91,West,269,1.0,5.0,95,0.02,,,0.42,,2013-01-11 15:42:00,
2013-01-11 05:53:00,64.0,63.0,29.91,WNW,293,1.0,6.0,95,0.00,,,0.42,,2013-01-11 15:53:00,
2013-01-11 06:02:00,64.0,63.0,29.91,West,269,2.0,5.0,95,0.00,,,0.42,,2013-01-11 16:02:00,
2013-01-11 06:12:00,64.0,63.0,29.92,WNW,295,3.0,5.0,96,0.02,,,0.37,,2013-01-11 16:12:00,
2013-01-11 06:22:00,64.0,63.0,29.92,WNW,295,3.0,5.0,96,0.02,,,0.37,,2013-01-11 16:22:00,
2013-01-11 06:32:00,64.0,63.0,29.92,WSW,248,2.0,7.0,96,0.02,,,0.37,,2013-01-11 16:32:00,
2013-01-11 06:42:00,64.0,63.0,29.92,WSW,248,2.0,7.0,96,0.02,,,0.37,,2013-01-11 16:42:00,
2013-01-11 06:53:00,64.0,63.0,29.93,West,280,1.0,4.0,96,0.02,,,0.37,,2013-01-11 16:53:00,
2013-01-11 07:02:00,64.0,63.0,29.93,West,270,2.0,5.0,96,0.02,,,0.37,,2013-01-11 17:02:00,
2013-01-11 07:12:00,64.0,63.0,29.93,West,270,2.0,5.0,96,0.02,,,0.37,,2013-01-11 17:12:00,
2013-01-11 07:22:00,64.0,63.0,29.93,SW,224,1.0,3.0,96,0.01,,,0.38,,2013-01-11 17:22:00,
2013-01-11 07:32:00,64.0,63.0,29.93,WNW,293,2.0,3.0,96,0.01,,,0.38,,2013-01-11 17:32:00,
2013-01-11 07:42:00,64.0,63.0,29.93,WNW,293,2.0,3.0,96,0.01,,,0.38,,2013-01-11 17:42:00,
2013-01-11 07:53:00,64.0,63.0,29.93,NW,320,4.0,7.0,96,0.01,,,0.38,,2013-01-11 17:53:00,
2013-01-11 08:02:00,65.0,64.0,29.94,WSW,242,2.0,6.0,96,0.01,,,0.38,,2013-01-11 18:02:00,
2013-01-11 08:12:00,65.0,64.0,29.94,WSW,242,2.0,6.0,96,0.01,,,0.38,,2013-01-11 18:12:00,
2013-01-11 08:23:00,65.0,64.0,29.94,West,280,1.0,5.0,96,0.00,,,0.34,,2013-01-11 18:23:00,
2013-01-11 08:32:00,66.0,65.0,29.94,West,274,1.0,6.0,96,0.00,,,0.34,,2013-01-11 18:32:00,
2013-01-11 08:42:00,66.0,65.0,29.94,West,274,1.0,6.0,96,0.00,,,0.34,,2013-01-11 18:42:00,
2013-01-11 08:53:00,67.0,66.0,29.94,West,268,2.0,7.0,95,0.00,,,0.34,,2013-01-11 18:53:00,
2013-01-11 09:02:00,68.0,67.0,29.94,WNW,298,3.0,6.0,95,0.00,,,0.34,,2013-01-11 19:02:00,
2013-01-11 09:12:00,68.0,67.0,29.94,WNW,298,3.0,6.0,95,0.00,,,0.34,,2013-01-11 19:12:00,
2013-01-11 09:22:00,69.0,67.0,29.94,WNW,301,4.0,6.0,93,0.00,,,0.23,,2013-01-11 19:22:00,
2013-01-11 09:32:00,71.0,68.0,29.94,NW,305,2.0,7.0,91,0.00,,,0.23,,2013-01-11 19:32:00,
2013-01-11 09:42:00,71.0,68.0,29.94,NW,305,2.0,7.0,91,0.00,,,0.23,,2013-01-11 19:42:00,
2013-01-11 09:53:00,71.0,68.0,29.94,NW,313,2.0,7.0,90,0.00,,,0.23,,2013-01-11 19:53:00,
2013-01-11 10:02:00,72.0,69.0,29.93,WNW,295,5.0,7.0,89,0.00,,,0.23,,2013-01-11 20:02:00,
2013-01-11 10:12:00,72.0,69.0,29.93,WNW,295,5.0,7.0,89,0.00,,,0.23,,2013-01-11 20:12:00,
2013-01-11 10:22:00,73.0,69.0,29.93,NNW,328,5.0,8.0,88,0.00,,,0.23,,2013-01-11 20:22:00,
2013-01-11 10:32:00,74.0,70.0,29.94,North,3,4.0,11.0,86,0.00,,,0.23,,2013-01-11 20:32:00,
2013-01-11 10:43:00,74.0,70.0,29.94,North,3,4.0,11.0,86,0.00,,,0.23,,2013-01-11 20:43:00,
2013-01-11 10:53:00,75.0,70.0,29.93,NE,38,5.0,10.0,85,0.00,,,0.23,,2013-01-11 20:53:00,
2013-01-11 11:02:00,75.0,70.0,29.93,North,4,5.0,10.0,85,0.00,,,0.23,,2013-01-11 21:02:00,
2013-01-11 11:12:00,75.0,70.0,29.93,North,4,5.0,10.0,85,0.00,,,0.23,,2013-01-11 21:12:00,
2013-01-11 11:22:00,75.0,69.0,29.92,North,351,6.0,13.0,83,0.00,,,0.23,,2013-01-11 21:22:00,
2013-01-11 11:32:00,75.0,70.0,29.92,North,6,5.0,11.0,84,0.00,,,0.23,,2013-01-11 21:32:00,
2013-01-11 11:42:00,75.0,70.0,29.92,North,6,5.0,11.0,84,0.00,,,0.23,,2013-01-11 21:42:00,
2013-01-11 11:53:00,75.0,70.0,29.91,NNE,19,6.0,12.0,84,0.00,,,0.23,,2013-01-11 21:53:00,
2013-01-11 12:02:00,75.0,70.0,29.91,NNW,347,4.0,12.0,84,0.00,,,0.23,,2013-01-11 22:02:00,
2013-01-11 12:12:00,75.0,70.0,29.91,NNW,347,4.0,12.0,84,0.00,,,0.23,,2013-01-11 22:12:00,
2013-01-11 12:22:00,75.0,69.0,29.91,NE,47,5.0,11.0,83,0.00,,,0.23,,2013-01-11 22:22:00,
2013-01-11 12:32:00,75.0,69.0,29.91,NW,316,5.0,12.0,82,0.00,,,0.23,,2013-01-11 22:32:00,
2013-01-11 12:42:00,75.0,69.0,29.91,NW,316,5.0,12.0,82,0.00,,,0.23,,2013-01-11 22:42:00,
2013-01-11 12:53:00,76.0,70.0,29.90,NNE,26,4.0,11.0,81,0.00,,,0.23,,2013-01-11 22:53:00,
2013-01-11 13:02:00,76.0,69.0,29.88,WNW,295,6.0,12.0,80,0.00,,,0.23,,2013-01-11 23:02:00,
2013-01-11 13:12:00,76.0,69.0,29.88,WNW,295,6.0,12.0,80,0.00,,,0.23,,2013-01-11 23:12:00,
2013-01-11 13:22:00,76.0,69.0,29.88,NNW,338,8.0,12.0,79,0.00,,,0.23,,2013-01-11 23:22:00,
2013-01-11 13:32:00,76.0,69.0,29.88,WNW,295,7.0,12.0,78,0.00,,,0.23,,2013-01-11 23:32:00,
2013-01-11 13:42:00,76.0,69.0,29.88,WNW,295,7.0,12.0,78,0.00,,,0.23,,2013-01-11 23:42:00,
2013-01-11 13:53:00,77.0,70.0,29.87,NNW,343,6.0,12.0,78,0.00,,,0.23,,2013-01-11 23:53:00,
2013-01-11 14:02:00,76.0,69.0,29.88,NNW,346,8.0,13.0,78,0.00,,,0.23,,2013-01-12 00:02:00,
2013-01-11 14:12:00,76.0,69.0,29.88,NNW,346,8.0,13.0,78,0.00,,,0.23,,2013-01-12 00:12:00,
2013-01-11 14:22:00,76.0,69.0,29.87,NNE,12,3.0,15.0,79,0.00,,,0.23,,2013-01-12 00:22:00,
2013-01-11 14:32:00,77.0,70.0,29.87,North,349,7.0,11.0,78,0.00,,,0.23,,2013-01-12 00:32:00,
2013-01-11 14:42:00,77.0,70.0,29.87,North,349,7.0,11.0,78,0.00,,,0.23,,2013-01-12 00:42:00,
2013-01-11 14:53:00,76.0,69.0,29.86,WNW,291,8.0,13.0,78,0.00,,,0.23,,2013-01-12 00:53:00,
2013-01-11 15:02:00,76.0,69.0,29.86,NW,311,7.0,14.0,79,0.00,,,0.23,,2013-01-12 01:02:00,
2013-01-11 15:12:00,76.0,69.0,29.86,NW,311,7.0,14.0,79,0.00,,,0.23,,2013-01-12 01:12:00,
2013-01-11 15:22:00,76.0,69.0,29.86,West,265,8.0,14.0,80,0.00,,,0.23,,2013-01-12 01:22:00,
2013-01-11 15:32:00,73.0,68.0,29.86,NE,48,14.0,21.0,84,0.00,,,0.23,,2013-01-12 01:32:00,
2013-01-11 15:42:00,73.0,68.0,29.86,NE,48,14.0,21.0,84,0.00,,,0.23,,2013-01-12 01:42:00,
2013-01-11 15:52:00,72.0,68.0,29.86,NNE,14,13.0,18.0,88,0.00,,,0.23,,2013-01-12 01:52:00,
2013-01-11 16:02:00,72.0,68.0,29.87,ENE,71,8.0,15.0,87,0.00,,,0.23,,2013-01-12 02:02:00,
2013-01-11 16:12:00,72.0,68.0,29.87,ENE,71,8.0,15.0,87,0.00,,,0.23,,2013-01-12 02:12:00,
2013-01-11 16:22:00,72.0,68.0,29.88,North,355,3.0,10.0,87,0.00,,,0.23,,2013-01-12 02:22:00,
2013-01-11 16:32:00,73.0,69.0,29.89,North,6,3.0,8.0,86,0.00,,,0.23,,2013-01-12 02:32:00,
2013-01-11 16:42:00,73.0,69.0,29.89,North,6,3.0,8.0,86,0.00,,,0.23,,2013-01-12 02:42:00,
2013-01-11 16:53:00,73.0,69.0,29.89,WNW,303,4.0,8.0,87,0.00,,,0.23,,2013-01-12 02:53:00,
2013-01-11 17:02:00,71.0,67.0,29.88,WNW,285,3.0,8.0,88,0.00,,,0.23,,2013-01-12 03:02:00,
2013-01-11 17:11:00,71.0,67.0,29.88,WNW,285,3.0,8.0,88,0.00,,,0.23,,2013-01-12 03:11:00,
2013-01-11 17:22:00,71.0,68.0,29.88,West,281,3.0,7.0,90,0.00,,,0.23,,2013-01-12 03:22:00,
2013-01-11 17:32:00,70.0,67.0,29.89,West,267,1.0,7.0,90,0.00,,,0.23,,2013-01-12 03:32:00,
2013-01-11 17:42:00,70.0,67.0,29.89,West,267,1.0,7.0,90,0.00,,,0.23,,2013-01-12 03:42:00,
2013-01-11 17:53:00,70.0,67.0,29.90,WNW,283,1.0,3.0,90,0.00,,,0.23,,2013-01-12 03:53:00,
2013-01-11 18:02:00,70.0,67.0,29.91,West,270,1.0,3.0,90,0.00,,,0.23,,2013-01-12 04:02:00,
2013-01-11 18:11:00,70.0,67.0,29.91,West,270,1.0,3.0,90,0.00,,,0.23,,2013-01-12 04:11:00,
2013-01-11 18:22:00,70.0,67.0,29.91,WSW,246,2.0,4.0,90,0.00,,,0.23,,2013-01-12 04:22:00,
2013-01-11 18:32:00,69.0,66.0,29.91,WSW,252,1.0,5.0,90,0.00,,,0.23,,2013-01-12 04:32:00,
2013-01-11 18:42:00,69.0,66.0,29.91,WSW,252,1.0,5.0,90,0.00,,,0.23,,2013-01-12 04:42:00,
2013-01-11 18:52:00,69.0,66.0,29.90,West,265,0.0,3.0,90,0.00,,,0.23,,2013-01-12 04:52:00,
2013-01-11 19:03:00,69.0,66.0,29.90,SW,219,2.0,3.0,90,0.00,,,0.23,,2013-01-12 05:03:00,
2013-01-11 19:12:00,69.0,66.0,29.90,SW,219,2.0,3.0,90,0.00,,,0.23,,2013-01-12 05:12:00,
2013-01-11 19:22:00,68.0,65.0,29.91,SW,229,0.0,2.0,90,0.00,,,0.22,,2013-01-12 05:22:00,
2013-01-11 19:32:00,68.0,65.0,29.91,SW,229,0.0,1.0,90,0.00,,,0.22,,2013-01-12 05:32:00,
2013-01-11 19:42:00,68.0,65.0,29.91,SW,229,0.0,1.0,90,0.00,,,0.22,,2013-01-12 05:42:00,
2013-01-11 19:52:00,68.0,65.0,29.91,SW,229,1.0,3.0,91,0.00,,,0.22,,2013-01-12 05:52:00,
2013-01-11 20:02:00,67.0,64.0,29.91,SW,222,2.0,3.0,91,0.00,,,0.22,,2013-01-12 06:02:00,
2013-01-11 20:12:00,67.0,64.0,29.91,SW,222,2.0,3.0,91,0.00,,,0.22,,2013-01-12 06:12:00,
2013-01-11 20:22:00,67.0,64.0,29.91,SW,222,0.0,2.0,91,0.00,,,0.20,,2013-01-12 06:22:00,
2013-01-11 20:32:00,67.0,65.0,29.91,SW,222,1.0,3.0,92,0.00,,,0.20,,2013-01-12 06:32:00,
2013-01-11 20:42:00,67.0,65.0,29.91,SW,222,1.0,3.0,92,0.00,,,0.20,,2013-01-12 06:42:00,
2013-01-11 20:52:00,66.0,64.0,29.91,SW,223,1.0,2.0,92,0.00,,,0.20,,2013-01-12 06:52:00,
2013-01-11 21:02:00,66.0,64.0,29.91,SSW,208,2.0,3.0,92,0.00,,,0.20,,2013-01-12 07:02:00,
2013-01-11 21:11:00,66.0,64.0,29.91,SSW,208,2.0,3.0,92,0.00,,,0.20,,2013-01-12 07:11:00,
2013-01-11 21:22:00,68.0,66.0,29.91,SSE,164,1.0,5.0,92,0.00,,,0.12,,2013-01-12 07:22:00,
2013-01-11 21:32:00,67.0,65.0,29.91,SW,219,1.0,3.0,92,0.00,,,0.12,,2013-01-12 07:32:00,
2013-01-11 21:42:00,67.0,65.0,29.91,SW,219,1.0,3.0,92,0.00,,,0.12,,2013-01-12 07:42:00,
2013-01-11 21:52:00,66.0,64.0,29.91,SW,218,2.0,4.0,92,0.00,,,0.12,,2013-01-12 07:52:00,
2013-01-11 22:02:00,66.0,64.0,29.91,SW,222,2.0,4.0,92,0.00,,,0.12,,2013-01-12 08:02:00,
2013-01-11 22:11:00,66.0,64.0,29.91,SW,222,2.0,4.0,92,0.00,,,0.12,,2013-01-12 08:11:00,
2013-01-11 22:22:00,66.0,64.0,29.91,SW,229,0.0,3.0,93,0.00,,,0.07,,2013-01-12 08:22:00,
2013-01-11 22:32:00,66.0,64.0,29.91,WSW,249,1.0,4.0,93,0.00,,,0.07,,2013-01-12 08:32:00,
2013-01-11 22:42:00,66.0,64.0,29.91,WSW,249,1.0,4.0,93,0.00,,,0.07,,2013-01-12 08:42:00,
2013-01-11 22:52:00,65.0,63.0,29.91,West,272,2.0,5.0,93,0.00,,,0.07,,2013-01-12 08:52:00,
2013-01-11 23:02:00,65.0,63.0,29.91,West,274,2.0,3.0,93,0.02,,,0.09,,2013-01-12 09:02:00,
2013-01-11 23:11:00,65.0,63.0,29.91,West,274,2.0,3.0,93,0.02,,,0.09,,2013-01-12 09:11:00,
2013-01-11 23:22:00,66.0,64.0,29.91,SW,227,2.0,6.0,94,0.03,,,0.10,,2013-01-12 09:22:00,
2013-01-11 23:32:00,66.0,64.0,29.91,SW,222,3.0,6.0,94,0.03,,,0.10,,2013-01-12 09:32:00,
2013-01-11 23:42:00,66.0,64.0,29.91,SW,222,3.0,6.0,94,0.03,,,0.10,,2013-01-12 09:42:00,
2013-01-11 23:53:00,66.0,64.0,29.91,SSW,212,1.0,6.0,94,0.03,,,0.10,,2013-01-12 09:53:00,